EW7658 Weather Reports


time (UTC)temp
F
wind
direction
speed
knots
gust
knots
rain 1hr
in
rain 24hr
in
rain mn
in
humidity
%
barometer
mb
20260906155526 81 0 0.0 7.0 0.00 0.00 0.00 78 1017.9
20260906155023 81 0 0.0 6.1 0.00 0.00 0.00 79 1018.1
20260906154552 81 0 0.0 3.5 0.00 0.00 0.00 80 1018.1
20260906154030 81 0 0.0 0.0 0.00 0.00 0.00 80 1017.9
20260906153529 81 0 0.0 0.0 0.00 0.00 0.00 81 1017.7
20260906153105 80 0 0.0 0.0 0.00 0.00 0.00 80 1017.8
20260906152526 80 0 0.0 0.9 0.00 0.00 0.00 81 1017.7
20260906152024 80 0 0.0 1.7 0.00 0.00 0.00 82 1017.8
20260906151546 79 0 0.0 1.7 0.00 0.00 0.00 82 1017.7
20260906151025 80 0 0.0 7.0 0.00 0.00 0.00 82 1017.4
20260906150524 79 0 0.0 7.0 0.00 0.00 0.00 83 1017.3
20260906150046 79 44 0.9 7.0 0.00 0.00 0.00 83 1017.3
20260906145526 79 0 0.0 2.6 0.00 0.00 0.00 83 1017.4
20260906145026 79 100 0.0 0.0 0.00 0.00 0.00 83 1017.4
20260906144549 79 0 0.0 0.0 0.00 0.00 0.00 85 1017.4
20260906144025 78 0 0.0 0.0 0.00 0.00 0.00 84 1017.4
20260906143528 78 0 0.0 3.5 0.00 0.00 0.00 85 1017.3
20260906143047 78 0 0.0 3.5 0.00 0.00 0.00 85 1017.4
20260906142525 78 0 0.0 3.5 0.00 0.00 0.00 85 1017.3
20260906142025 78 0 0.0 3.5 0.00 0.00 0.00 86 1017.3
20260906141559 77 0 0.0 0.0 0.00 0.00 0.00 87 1017.1
20260906141024 77 0 0.0 0.0 0.00 0.00 0.00 87 1017.1
20260906140523 77 0 0.0 0.0 0.00 0.00 0.00 87 1016.9
20260906140044 77 0 0.0 0.0 0.00 0.00 0.00 87 1016.8
20260906135525 76 0 0.0 5.2 0.00 0.00 0.00 87 1016.9
20260906135025 76 0 0.0 5.2 0.00 0.00 0.00 88 1017.0
20260906134542 76 0 0.0 0.0 0.00 0.00 0.00 88 1017.0
20260906134026 76 0 0.0 5.2 0.00 0.00 0.00 88 1017.0
20260906133526 76 0 0.0 5.2 0.00 0.00 0.00 88 1017.1
20260906133055 76 0 0.9 5.2 0.00 0.00 0.00 88 1017.1
20260906132526 75 0 0.0 0.0 0.00 0.00 0.00 89 1017.0
20260906132024 75 0 0.0 0.0 0.00 0.00 0.00 89 1016.9
20260906131559 75 0 0.0 6.1 0.00 0.00 0.00 90 1017.0
20260906131025 74 0 0.0 6.1 0.00 0.00 0.00 91 1017.1
20260906130524 74 94 0.9 6.1 0.00 0.00 0.00 90 1017.1
20260906130054 74 0 0.0 4.3 0.00 0.00 0.00 90 1017.1
20260906125525 74 0 0.0 1.7 0.00 0.00 0.00 91 1017.1
20260906125023 74 0 0.0 1.7 0.00 0.00 0.00 91 1017.0
20260906124548 73 0 0.0 1.7 0.00 0.00 0.00 91 1017.0
20260906124025 73 0 0.0 0.0 0.00 0.00 0.00 92 1017.1
20260906123524 73 0 0.0 0.0 0.00 0.00 0.00 92 1017.0
20260906123047 73 0 0.0 0.0 0.00 0.00 0.00 93 1016.9
20260906122526 73 0 0.0 0.0 0.00 0.00 0.00 93 1016.8
20260906122025 0 0.0 0.0 0.00 0.00 0.00 1016.7
20260906121544 0 0.0 0.0 0.00 0.00 0.00 1016.7
20260906121029 0 0.0 0.0 0.00 0.00 0.00 1016.6
20260906120527 0 0.0 0.0 0.00 0.00 0.00 1016.6
20260906120045 0 0.0 0.0 0.00 0.00 0.00 1016.6
20260906115524 0 0.0 0.0 0.00 0.00 0.00 1016.5
20260906115022 0 0.0 0.0 0.00 0.00 0.00 1016.3
20260906114548 0 0.0 0.0 0.00 0.00 0.00 1016.2
20260906114023 0 0.0 0.0 0.00 0.00 0.00 1016.3
20260906113521 0 0.0 0.0 0.00 0.00 0.00 1016.2
20260906113047 0 0.0 0.0 0.00 0.00 0.00 1016.1
20260906112521 0 0.0 0.0 0.00 0.00 0.00 1016.2
20260906112026 0 0.0 0.0 0.00 0.00 0.00 1016.1
20260906111547 0 0.0 0.0 0.00 0.00 0.00 1016.1
20260906111024 0 0.0 0.0 0.00 0.00 0.00 1016.2
20260906110524 0 0.0 0.0 0.00 0.00 0.00 1016.1
20260906110043 0 0.0 0.0 0.00 0.00 0.00 1016.1
20260906105524 0 0.0 0.0 0.00 0.00 0.00 1016.1
20260906105024 0 0.0 0.0 0.00 0.00 0.00 1016.1
20260906104541 0 0.0 0.0 0.00 0.00 0.00 1016.0
20260906104024 0 0 0.0 0.0 0.00 0.00 0.00 1016.0
20260906103524 74 0 0.0 0.0 0.00 0.00 0.00 91 1015.9
20260906103049 74 0 0.0 0.0 0.00 0.00 0.00 91 1015.9
20260906102528 74 0 0.0 0.0 0.00 0.00 0.00 91 1015.9
20260906102021 74 0 0.0 0.0 0.00 0.00 0.00 91 1015.7
20260906101544 74 0 0.0 0.0 0.00 0.00 0.00 91 1015.7
20260906101024 74 0 0.0 0.0 0.00 0.00 0.00 91 1015.6
20260906100528 75 0 0.0 0.0 0.00 0.00 0.00 91 1015.7
20260906100042 75 0 0.0 0.0 0.00 0.00 0.00 91 1015.5
20260906095525 75 0 0.0 0.0 0.00 0.00 0.00 90 1015.5
20260906095046 75 0 0.0 0.0 0.00 0.00 0.00 90 1015.4
20260906094557 75 0 0.0 0.0 0.00 0.00 0.00 90 1015.5
20260906094028 75 0 0.0 0.0 0.00 0.00 0.00 90 1015.4
20260906093525 75 0 0.0 0.0 0.00 0.00 0.00 90 1015.4
20260906093050 76 0 0.0 0.0 0.00 0.00 0.00 90 1015.4
20260906092523 76 0 0.0 0.0 0.00 0.00 0.00 90 1015.4
20260906092024 76 0 0.0 0.0 0.00 0.00 0.00 90 1015.4
20260906091549 76 0 0.0 0.0 0.00 0.00 0.00 91 1015.4
20260906091024 76 0 0.0 0.0 0.00 0.00 0.00 91 1015.4
20260906090525 76 0 0.0 0.9 0.00 0.00 0.00 90 1015.4
20260906090052 76 0 0.0 0.9 0.00 0.00 0.00 91 1015.5
20260906085525 76 0 0.0 0.0 0.00 0.00 0.00 91 1015.3
20260906085023 76 0 0.0 0.0 0.00 0.00 0.00 91 1015.3
20260906084547 77 0 0.0 0.0 0.00 0.00 0.00 91 1015.2
20260906084035 77 0 0.0 0.0 0.00 0.00 0.00 91 1015.1
20260906083526 77 0 0.0 0.0 0.00 0.00 0.00 91 1015.1
20260906083047 77 0 0.0 0.0 0.00 0.00 0.00 91 1015.1
20260906082523 77 0 0.0 0.0 0.00 0.00 0.00 92 1015.0
20260906082024 77 0 0.0 0.0 0.00 0.00 0.00 92 1015.0
20260906081547 77 0 0.0 0.0 0.00 0.00 0.00 92 1015.1
20260906081024 77 0 0.0 0.0 0.00 0.00 0.00 92 1015.0
20260906080524 77 0 0.0 0.0 0.00 0.00 0.00 92 1014.9
20260906080047 77 0 0.0 0.0 0.00 0.00 0.00 92 1014.8
20260906075523 78 0 0.0 0.0 0.00 0.00 0.00 92 1014.9
20260906075022 78 0 0.0 0.0 0.00 0.00 0.00 92 1014.9
20260906074548 78 0 0.0 0.0 0.00 0.00 0.00 92 1014.9
20260906074025 78 0 0.0 0.0 0.00 0.00 0.00 91 1014.9
20260906073528 78 0 0.0 0.0 0.00 0.00 0.00 91 1015.0
20260906073047 78 0 0.0 0.0 0.00 0.00 0.00 91 1015.2
20260906072531 78 0 0.0 0.0 0.00 0.00 0.00 91 1015.0
20260906072025 78 0 0.0 0.0 0.00 0.00 0.00 90 1015.1
20260906071545 78 0 0.0 0.0 0.00 0.00 0.00 90 1015.1
20260906071024 78 0 0.0 0.0 0.00 0.00 0.00 90 1015.0
20260906070528 78 0 0.0 0.0 0.00 0.00 0.00 89 1015.0
20260906070045 79 0 0.0 0.0 0.00 0.00 0.00 89 1015.0
20260906065523 79 0 0.0 0.0 0.00 0.00 0.00 89 1014.9
20260906065027 79 0 0.0 0.0 0.00 0.00 0.00 89 1014.9
20260906064549 79 0 0.0 0.0 0.00 0.00 0.00 89 1014.9
20260906064026 79 0 0.0 0.0 0.00 0.00 0.00 89 1014.9
20260906063525 79 0 0.0 0.9 0.00 0.00 0.00 90 1015.1
20260906063047 78 0 0.0 0.9 0.00 0.00 0.00 90 1015.0
20260906062530 78 0 0.0 0.9 0.00 0.00 0.00 90 1014.9
20260906062027 77 0 0.0 0.0 0.00 0.00 0.00 90 1014.9
20260906061549 77 0 0.0 0.0 0.00 0.00 0.00 90 1014.9
20260906061024 77 0 0.0 0.0 0.00 0.00 0.00 90 1014.9
20260906060523 77 0 0.0 0.0 0.00 0.00 0.00 89 1014.9
20260906060054 77 0 0.0 0.0 0.00 0.00 0.00 89 1014.7
20260906055524 77 0 0.0 0.0 0.00 0.00 0.00 89 1014.9
20260906055027 77 0 0.0 0.0 0.00 0.00 0.00 89 1014.8
20260906054553 77 0 0.0 0.0 0.00 0.00 0.00 89 1014.8
20260906054026 78 0 0.0 0.0 0.00 0.00 0.00 88 1014.8
20260906053528 78 0 0.0 0.0 0.00 0.00 0.00 88 1014.9
20260906053047 78 0 0.0 0.0 0.00 0.00 0.00 88 1014.8
20260906052524 78 0 0.0 0.0 0.00 0.00 0.00 88 1014.9
20260906052028 78 0 0.0 0.0 0.00 0.00 0.00 88 1014.8
20260906051545 78 0 0.0 0.0 0.00 0.00 0.00 87 1014.7
20260906051025 78 0 0.0 0.0 0.00 0.00 0.00 87 1014.8
20260906050527 78 0 0.0 0.0 0.00 0.00 0.00 87 1014.8
20260906050045 78 0 0.0 0.0 0.00 0.00 0.00 87 1014.7
20260906045524 78 0 0.0 0.0 0.00 0.00 0.00 86 1014.7
20260906045026 78 0 0.0 0.0 0.00 0.00 0.00 86 1014.6
20260906044548 79 0 0.0 0.0 0.00 0.00 0.00 86 1014.8
20260906044026 79 0 0.0 0.0 0.00 0.00 0.00 86 1014.5
20260906043529 79 0 0.0 0.0 0.00 0.00 0.00 86 1014.6
20260906043045 79 0 0.0 0.0 0.00 0.00 0.00 86 1014.6
20260906042523 79 0 0.0 0.0 0.00 0.00 0.00 84 1014.6
20260906042024 79 0 0.0 0.0 0.00 0.00 0.00 84 1014.7
20260906041546 79 0 0.0 0.0 0.00 0.00 0.00 84 1014.5
20260906041024 80 0 0.0 0.0 0.00 0.00 0.00 84 1014.5
20260906040524 80 0 0.0 0.0 0.00 0.00 0.00 84 1014.4
20260906040053 80 0 0.0 0.0 0.00 0.00 0.00 84 1014.4
20260906035522 80 0 0.0 0.0 0.00 0.00 0.00 84 1014.3
20260906035026 80 0 0.0 0.0 0.00 0.00 0.00 84 1014.3
20260906034559 80 0 0.0 0.0 0.00 0.00 0.00 84 1014.4
20260906034026 80 0 0.0 0.0 0.00 0.00 0.00 84 1014.4
20260906033525 80 0 0.0 0.0 0.00 0.00 0.00 84 1014.4
20260906033046 80 0 0.0 0.0 0.00 0.00 0.00 84 1014.3
20260906032523 80 0 0.0 0.0 0.00 0.00 0.00 83 1014.3
20260906032025 80 0 0.0 0.0 0.00 0.00 0.00 83 1014.2
20260906031544 80 0 0.0 0.0 0.00 0.00 0.00 83 1014.1
20260906031024 80 0 0.0 0.0 0.00 0.00 0.00 83 1014.0
20260906030527 81 0 0.0 0.0 0.00 0.00 0.00 83 1014.0
20260906030048 81 0 0.0 0.0 0.00 0.00 0.00 82 1014.0
20260906025528 81 0 0.0 0.0 0.00 0.00 0.00 81 1014.0
20260906025027 81 0 0.0 0.0 0.00 0.00 0.00 81 1013.9
20260906024552 81 0 0.0 0.0 0.00 0.00 0.00 81 1013.8
20260906024027 81 0 0.0 0.0 0.00 0.00 0.00 80 1013.8
20260906023525 82 0 0.0 0.0 0.00 0.00 0.00 80 1013.8
20260906023044 82 0 0.0 0.0 0.00 0.00 0.00 80 1013.6
20260906022527 82 0 0.0 0.0 0.00 0.00 0.00 79 1013.5
20260906022026 82 0 0.0 0.0 0.00 0.00 0.00 79 1013.4
20260906021547 82 0 0.0 0.0 0.00 0.00 0.00 78 1013.4
20260906021025 83 0 0.0 0.0 0.00 0.00 0.00 78 1013.2
20260906020526 83 0 0.0 0.0 0.00 0.00 0.00 78 1013.2
20260906020047 83 0 0.0 0.0 0.00 0.00 0.00 78 1013.1
20260906015524 83 0 0.0 0.0 0.00 0.00 0.00 77 1013.1
20260906015025 83 0 0.0 0.0 0.00 0.00 0.00 76 1013.0
20260906014548 84 0 0.0 0.0 0.00 0.00 0.00 75 1012.9
20260906014028 84 0 0.0 0.0 0.00 0.00 0.00 75 1012.9
20260906013526 84 0 0.0 0.0 0.00 0.00 0.00 75 1012.8
20260906013049 84 0 0.0 0.0 0.00 0.00 0.00 74 1012.7
20260906012529 85 0 0.0 0.0 0.00 0.00 0.00 74 1012.7
20260906012026 85 0 0.0 0.0 0.00 0.00 0.00 73 1012.6
20260906011547 85 0 0.0 0.0 0.00 0.00 0.00 73 1012.6
20260906011025 86 0 0.0 0.0 0.00 0.00 0.00 72 1012.6
20260906010526 86 0 0.0 0.0 0.00 0.00 0.00 71 1012.6
20260906010108 87 0 0.0 0.0 0.00 0.00 0.00 71 1012.6
20260906005525 87 0 0.0 0.0 0.00 0.00 0.00 70 1012.6
20260906005026 87 0 0.0 0.0 0.00 0.00 0.00 68 1012.5
20260906004555 88 0 0.0 0.0 0.00 0.00 0.00 68 1012.4
20260906004029 88 0 0.0 0.0 0.00 0.00 0.00 67 1012.4
20260906003524 88 0 0.0 0.0 0.00 0.00 0.00 67 1012.4
20260906003043 89 0 0.0 0.0 0.00 0.00 0.00 67 1012.4
20260906002524 89 0 0.0 0.0 0.00 0.00 0.00 67 1012.3
20260906002027 89 0 0.0 0.0 0.00 0.00 0.00 67 1012.4
20260906001600 89 0 0.0 0.0 0.00 0.00 0.00 66 1012.5
20260906001024 89 0 0.0 0.0 0.00 0.00 0.00 66 1012.6
20260906000524 90 0 0.0 0.0 0.00 0.00 0.00 66 1012.6
20260906000047 90 0 0.0 0.0 0.00 0.00 0.00 65 1012.7
20260905235525 90 0 0.0 0.0 0.00 0.00 0.00 65 1012.6
20260905235024 91 0 0.0 0.0 0.00 0.00 0.00 62 1012.5
20260905234543 91 0 0.0 0.0 0.00 0.00 0.00 62 1012.4
20260905234024 91 0 0.0 0.0 0.00 0.00 0.00 61 1012.6
20260905233524 91 0 0.0 0.0 0.00 0.00 0.00 61 1012.6
20260905233050 91 0 0.0 0.0 0.00 0.00 0.00 62 1012.6
20260905232527 91 0 0.0 0.0 0.00 0.00 0.00 62 1012.5
20260905232024 91 0 0.0 0.0 0.00 0.00 0.00 62 1012.5
20260905231546 91 0 0.0 0.0 0.00 0.00 0.00 62 1012.5
20260905231028 91 0 0.0 0.0 0.00 0.00 0.00 61 1012.6
20260905230525 91 0 0.0 0.0 0.00 0.00 0.00 61 1012.7
20260905230047 92 0 0.0 0.0 0.00 0.00 0.00 60 1012.7
20260905225530 93 0 0.0 0.0 0.00 0.00 0.00 60 1012.7
20260905225022 93 0 0.0 0.0 0.00 0.00 0.00 59 1012.6
20260905224548 93 0 0.0 0.9 0.00 0.00 0.00 58 1012.7
20260905224025 94 0 0.0 0.9 0.00 0.00 0.00 57 1012.6
20260905223525 95 0 0.0 0.9 0.00 0.00 0.00 55 1012.5
20260905223052 96 0 0.0 4.3 0.00 0.00 0.00 54 1012.4
20260905222525 96 0 0.0 4.3 0.00 0.00 0.00 54 1012.4
20260905222025 96 0 0.0 4.3 0.00 0.00 0.00 52 1012.3
20260905221544 97 0 0.0 0.0 0.00 0.00 0.00 50 1012.4
20260905221025 97 0 0.0 0.0 0.00 0.00 0.00 49 1012.3
20260905220527 98 0 0.0 2.6 0.00 0.00 0.00 50 1012.4
20260905220051 98 0 0.0 2.6 0.00 0.00 0.00 50 1012.3
20260905215526 99 0 0.0 2.6 0.00 0.00 0.00 50 1012.4
20260905215027 99 0 0.0 0.0 0.00 0.00 0.00 49 1012.3
20260905214548 100 0 0.0 0.0 0.00 0.00 0.00 51 1012.4
20260905214024 100 0 0.0 0.0 0.00 0.00 0.00 50 1012.4
20260905213528 100 0 0.0 5.2 0.00 0.00 0.00 49 1012.4
20260905213049 101 0 0.0 5.2 0.00 0.00 0.00 48 1012.4
20260905212528 101 0 0.0 2.6 0.00 0.00 0.00 47 1012.3
20260905212026 100 0 0.0 0.0 0.00 0.00 0.00 47 1012.2
20260905211546 99 0 0.0 0.0 0.00 0.00 0.00 48 1012.3
20260905211025 99 0 0.0 0.0 0.00 0.00 0.00 48 1012.3
20260905210524 98 0 0.0 0.0 0.00 0.00 0.00 47 1012.3
20260905210056 98 0 0.0 0.0 0.00 0.00 0.00 49 1012.4
20260905205524 97 0 0.0 0.0 0.00 0.00 0.00 48 1012.5
20260905205023 98 0 0.0 1.7 0.00 0.00 0.00 48 1012.6
20260905204546 98 0 0.0 1.7 0.00 0.00 0.00 48 1012.9
20260905204025 98 0 0.0 6.1 0.00 0.00 0.00 49 1012.9
20260905203526 98 0 0.0 6.1 0.00 0.00 0.00 49 1012.8
20260905203046 98 0 0.0 5.2 0.00 0.00 0.00 48 1012.8
20260905202525 98 0 0.9 6.1 0.00 0.00 0.00 49 1012.7
20260905202025 98 0 0.0 10.4 0.00 0.00 0.00 50 1012.7
20260905201544 98 94 1.7 10.4 0.00 0.00 0.00 49 1012.8
20260905201025 99 0 0.9 8.7 0.00 0.00 0.00 49 1012.7
20260905200523 99 0 0.0 7.0 0.00 0.00 0.00 49 1012.9
20260905200112 100 0 0.0 7.0 0.00 0.00 0.00 48 1013.0
20260905195526 100 0 0.0 6.1 0.00 0.00 0.00 50 1013.0
20260905195025 100 0 0.0 7.0 0.00 0.00 0.00 47 1013.1
20260905194546 100 0 0.0 7.0 0.00 0.00 0.00 48 1013.2
20260905194026 101 59 0.9 7.0 0.00 0.00 0.00 46 1013.2
20260905193524 102 0 0.0 0.0 0.00 0.00 0.00 45 1013.3
20260905193044 102 0 0.0 0.9 0.00 0.00 0.00 43 1013.3
20260905192525 102 0 0.0 5.2 0.00 0.00 0.00 42 1013.3
20260905192025 102 0 0.0 5.2 0.00 0.00 0.00 42 1013.4
20260905191544 102 0 0.0 0.0 0.00 0.00 0.00 44 1013.4
20260905191023 102 0 0.0 0.0 0.00 0.00 0.00 44 1013.5
20260905190524 101 0 0.0 0.0 0.00 0.00 0.00 44 1013.5
20260905190051 102 0 0.0 0.0 0.00 0.00 0.00 44 1013.5
20260905185522 102 0 0.0 0.9 0.00 0.00 0.00 43 1013.6
20260905185029 102 0 0.0 0.9 0.00 0.00 0.00 43 1013.8
20260905184555 102 0 0.0 0.0 0.00 0.00 0.00 44 1013.8
20260905184025 102 0 0.0 0.0 0.00 0.00 0.00 43 1013.8
20260905183526 103 0 0.0 0.0 0.00 0.00 0.00 44 1013.9
20260905183046 103 0 0.0 0.0 0.00 0.00 0.00 45 1013.8
20260905182525 103 0 0.0 0.0 0.00 0.00 0.00 43 1013.8
20260905182028 103 0 0.0 0.0 0.00 0.00 0.00 46 1013.9
20260905181546 102 0 0.0 0.0 0.00 0.00 0.00 43 1013.9
20260905181022 102 0 0.0 0.9 0.00 0.00 0.00 45 1014.0
20260905180524 102 0 0.0 3.5 0.00 0.00 0.00 46 1014.1
20260905180050 101 0 0.0 3.5 0.00 0.00 0.00 46 1014.0
20260905175526 101 0 0.0 0.0 0.00 0.00 0.00 47 1014.2
20260905175026 101 0 0.0 0.0 0.00 0.00 0.00 46 1014.2
20260905174546 101 0 0.0 7.0 0.00 0.00 0.00 45 1014.4
20260905174024 101 0 0.0 7.0 0.00 0.00 0.00 49 1014.3
20260905173524 100 275 0.0 7.0 0.00 0.00 0.00 47 1014.4
20260905173050 101 0 0.0 1.7 0.00 0.00 0.00 48 1014.4
20260905172525 100 0 0.0 0.0 0.00 0.00 0.00 49 1014.3
20260905172025 100 201 0.0 0.0 0.00 0.00 0.00 50 1014.4
20260905171544 100 0 0.0 0.0 0.00 0.00 0.00 53 1014.4
20260905171027 99 0 0.0 0.0 0.00 0.00 0.00 51 1014.5
20260905170523 99 0 0.0 0.0 0.00 0.00 0.00 53 1014.6
20260905170050 99 0 0.0 0.0 0.00 0.00 0.00 53 1014.7
20260905165525 99 0 0.0 0.0 0.00 0.00 0.00 54 1014.7
20260905165025 99 0 0.0 0.0 0.00 0.00 0.00 55 1014.9
20260905164548 98 0 0.0 1.7 0.00 0.00 0.00 54 1014.9
20260905164027 98 0 0.0 1.7 0.00 0.00 0.00 55 1015.0
20260905163524 98 0 0.0 0.0 0.00 0.00 0.00 54 1015.0
20260905163045 98 0 0.0 0.0 0.00 0.00 0.00 54 1015.1
20260905162524 98 0 0.0 0.0 0.00 0.00 0.00 54 1015.1
20260905162023 98 0 0.0 0.0 0.00 0.00 0.00 55 1015.1
20260905161544 98 0 0.0 0.0 0.00 0.00 0.00 55 1015.1
20260905161030 97 0 0.0 0.0 0.00 0.00 0.00 57 1015.2
20260905160523 96 0 0.0 0.0 0.00 0.00 0.00 56 1015.1
20260905160042 96 0 0.0 1.7 0.00 0.00 0.00 56 1015.0